• In Italy
  • List of Countries
  • For 7 days
  • Water Temperature
  • Satellite Maps
  • Weather Map
  • Weather Widgets
  • user-avatar
    Login

    Hourly Weather Erd

    Today, 19 September, Wednesday

    Time Temperature Precipitation Wind Pressure Humidity
    00:00 +19°C° 0 mm 2 mps 755 mmHg 50%
    01:00 +19°C° 0 mm 2 mps 755 mmHg 52%
    02:00 +18°C° 0 mm 2 mps 755 mmHg 54%
    03:00 +18°C° 0 mm 2 mps 755 mmHg 56%
    04:00 +17°C° 0 mm 2 mps 755 mmHg 58%
    05:00 +18°C° 0 mm 2 mps 755 mmHg 58%
    06:00 +18°C° 0 mm 2 mps 756 mmHg 58%
    07:00 +19°C° 0 mm 2 mps 756 mmHg 58%
    08:00 +21°C° 0 mm 2 mps 756 mmHg 53%
    09:00 +24°C° 0 mm 2 mps 756 mmHg 48%
    10:00 +26°C° 0 mm 2 mps 756 mmHg 42%
    11:00 +28°C° 0 mm 2 mps 756 mmHg 39%
    12:00 +29°C° 0 mm 2 mps 756 mmHg 36%
    13:00 +30°C° 0 mm 2 mps 755 mmHg 32%
    14:00 +30°C° 0 mm 2 mps 755 mmHg 31%
    15:00 +30°C° 0 mm 1 mps 755 mmHg 31%
    16:00 +30°C° 0 mm 1 mps 754 mmHg 30%
    17:00 +28°C° 0 mm 1 mps 755 mmHg 34%
    18:00 +26°C° 0 mm 1 mps 755 mmHg 37%
    19:00 +24°C° 0 mm 1 mps 755 mmHg 41%
    20:00 +24°C° 0 mm 1 mps 755 mmHg 43%
    21:00 +23°C° 0 mm 1 mps 755 mmHg 45%
    22:00 +22°C° 0 mm 1 mps 755 mmHg 48%
    23:00 +22°C° 0 mm 1 mps 755 mmHg 50%

    Tomorrow, 20 September, Thursday

    Time Temperature Precipitation Wind Pressure Humidity
    00:00 +21°C° 0 mm 1 mps 755 mmHg 52%
    01:00 +21°C° 0 mm 1 mps 755 mmHg 54%
    02:00 +20°C° 0 mm 1 mps 755 mmHg 55%
    03:00 +20°C° 0 mm 1 mps 755 mmHg 57%
    04:00 +19°C° 0 mm 1 mps 755 mmHg 58%
    05:00 +20°C° 0 mm 1 mps 755 mmHg 57%
    06:00 +21°C° 0 mm 1 mps 755 mmHg 56%
    07:00 +21°C° 0 mm 1 mps 756 mmHg 55%
    08:00 +23°C° 0 mm 1 mps 756 mmHg 49%
    09:00 +25°C° 0 mm 1 mps 756 mmHg 43%
    10:00 +28°C° 0 mm 1 mps 756 mmHg 37%
    11:00 +29°C° 0 mm 1 mps 756 mmHg 34%
    12:00 +30°C° 0 mm 1 mps 755 mmHg 32%
    13:00 +31°C° 0 mm 1 mps 755 mmHg 29%
    14:00 +31°C° 0 mm 1 mps 755 mmHg 29%
    15:00 +31°C° 0 mm 1 mps 754 mmHg 28%
    16:00 +30°C° 0 mm 1 mps 754 mmHg 28%
    17:00 +29°C° 0 mm 1 mps 754 mmHg 32%
    18:00 +27°C° 0 mm 1 mps 754 mmHg 36%
    19:00 +25°C° 0 mm 1 mps 754 mmHg 40%
    20:00 +24°C° 0 mm 1 mps 754 mmHg 42%
    21:00 +23°C° 0 mm 1 mps 754 mmHg 43%
    22:00 +23°C° 0 mm 1 mps 754 mmHg 45%
    23:00 +22°C° 0 mm 1 mps 754 mmHg 46%

    Day after tomorrow, 21 September, Friday

    Time Temperature Precipitation Wind Pressure Humidity
    00:00 +22°C° 0 mm 1 mps 754 mmHg 47%
    01:00 +21°C° 0 mm 1 mps 754 mmHg 48%
    02:00 +21°C° 0 mm 1 mps 754 mmHg 49%
    03:00 +21°C° 0 mm 1 mps 754 mmHg 50%
    04:00 +20°C° 0 mm 1 mps 753 mmHg 51%
    05:00 +21°C° 0 mm 1 mps 753 mmHg 50%
    06:00 +21°C° 0 mm 1 mps 753 mmHg 49%
    07:00 +22°C° 0 mm 1 mps 753 mmHg 49%
    08:00 +24°C° 0 mm 2 mps 753 mmHg 43%
    09:00 +26°C° 0 mm 2 mps 753 mmHg 38%
    10:00 +28°C° 0 mm 3 mps 753 mmHg 33%
    11:00 +29°C° 0 mm 3 mps 753 mmHg 30%
    12:00 +30°C° 0 mm 4 mps 752 mmHg 27%
    13:00 +32°C° 0 mm 4 mps 752 mmHg 25%
    14:00 +32°C° 0 mm 4 mps 751 mmHg 24%
    15:00 +32°C° 0 mm 4 mps 750 mmHg 24%
    16:00 +32°C° 0 mm 4 mps 750 mmHg 23%
    17:00 +29°C° 0 mm 3 mps 750 mmHg 26%
    18:00 +27°C° 0 mm 3 mps 750 mmHg 28%
    19:00 +25°C° 0 mm 3 mps 749 mmHg 31%
    20:00 +24°C° 0 mm 3 mps 749 mmHg 32%
    21:00 +22°C° 0 mm 3 mps 749 mmHg 33%
    22:00 +22°C° 0 mm 3 mps 749 mmHg 35%
    23:00 +21°C° 0 mm 3 mps 749 mmHg 37%

    22 September, Saturday

    Time Temperature Precipitation Wind Pressure Humidity
    00:00 +21°C° 0 mm 3 mps 748 mmHg 39%
    01:00 +20°C° 0 mm 3 mps 748 mmHg 41%
    02:00 +20°C° 0 mm 4 mps 749 mmHg 45%
    03:00 +20°C° 0 mm 4 mps 749 mmHg 48%
    04:00 +20°C° 0 mm 5 mps 750 mmHg 52%
    05:00 +18°C° 0 mm 7 mps 751 mmHg 51%
    06:00 +18°C° 0 mm 9 mps 752 mmHg 50%
    07:00 +17°C° 0 mm 11 mps 753 mmHg 48%
    08:00 +17°C° 0 mm 10 mps 753 mmHg 47%
    09:00 +16°C° 0 mm 10 mps 754 mmHg 46%
    10:00 +14°C° 0 mm 10 mps 755 mmHg 44%
    11:00 +13°C° 0.9 mm 8 mps 755 mmHg 53%
    12:00 +12°C° 0.9 mm 7 mps 756 mmHg 61%
    13:00 +11°C° 0.9 mm 6 mps 757 mmHg 69%
    14:00 +12°C° 0.3 mm 5 mps 757 mmHg 70%
    15:00 +12°C° 0.3 mm 4 mps 757 mmHg 70%
    16:00 +12°C° 0.3 mm 3 mps 757 mmHg 70%
    17:00 +12°C° 0 mm 3 mps 757 mmHg 72%
    18:00 +12°C° 0 mm 3 mps 758 mmHg 74%
    19:00 +11°C° 0 mm 3 mps 758 mmHg 76%
    20:00 +11°C° 0 mm 3 mps 758 mmHg 79%
    21:00 +10°C° 0 mm 3 mps 758 mmHg 82%
    22:00 +9°C° 0 mm 2 mps 758 mmHg 85%
    23:00 +9°C° 0 mm 2 mps 758 mmHg 85%

    23 September, Sunday

    Time Temperature Precipitation Wind Pressure Humidity
    00:00 +8°C° 0 mm 2 mps 758 mmHg 84%
    01:00 +8°C° 0 mm 2 mps 758 mmHg 84%
    02:00 +9°C° 0 mm 1 mps 758 mmHg 83%
    03:00 +9°C° 0 mm 1 mps 758 mmHg 82%
    04:00 +9°C° 0 mm 1 mps 758 mmHg 81%
    05:00 +10°C° 0 mm 1 mps 758 mmHg 78%
    06:00 +10°C° 0 mm 1 mps 758 mmHg 75%
    07:00 +11°C° 0 mm 1 mps 758 mmHg 72%
    08:00 +13°C° 0 mm 1 mps 758 mmHg 63%
    09:00 +15°C° 0 mm 2 mps 757 mmHg 54%
    10:00 +17°C° 0 mm 3 mps 757 mmHg 45%
    11:00 +18°C° 0 mm 3 mps 756 mmHg 41%
    12:00 +20°C° 0 mm 3 mps 755 mmHg 36%
    13:00 +21°C° 0 mm 4 mps 755 mmHg 32%
    14:00 +21°C° 0 mm 4 mps 754 mmHg 31%
    15:00 +21°C° 0 mm 4 mps 753 mmHg 31%
    16:00 +21°C° 0 mm 4 mps 752 mmHg 31%
    17:00 +19°C° 0 mm 4 mps 752 mmHg 33%
    18:00 +18°C° 0 mm 4 mps 751 mmHg 35%
    19:00 +17°C° 0 mm 4 mps 750 mmHg 37%
    20:00 +17°C° 0 mm 4 mps 750 mmHg 37%
    21:00 +16°C° 0 mm 5 mps 749 mmHg 37%
    22:00 +16°C° 0 mm 5 mps 748 mmHg 36%
    23:00 +16°C° 0 mm 5 mps 747 mmHg 38%

    24 September, Monday

    Time Temperature Precipitation Wind Pressure Humidity
    00:00 +15°C° 0 mm 5 mps 746 mmHg 40%
    01:00 +15°C° 0 mm 5 mps 745 mmHg 41%
    02:00 +15°C° 0.2 mm 5 mps 745 mmHg 48%
    03:00 +15°C° 0.2 mm 5 mps 745 mmHg 55%
    04:00 +15°C° 0.2 mm 5 mps 745 mmHg 61%
    05:00 +15°C° 0.7 mm 5 mps 745 mmHg 62%
    06:00 +14°C° 0.7 mm 5 mps 745 mmHg 64%
    07:00 +13°C° 0.7 mm 5 mps 745 mmHg 65%
    08:00 +13°C° 1.3 mm 5 mps 746 mmHg 69%
    09:00 +12°C° 1.3 mm 5 mps 746 mmHg 73%
    10:00 +11°C° 1.3 mm 4 mps 746 mmHg 77%
    11:00 +10°C° 0.8 mm 5 mps 746 mmHg 77%
    12:00 +10°C° 0.8 mm 5 mps 746 mmHg 77%
    13:00 +10°C° 0.8 mm 6 mps 746 mmHg 77%
    14:00 +11°C° 0.2 mm 6 mps 747 mmHg 72%
    15:00 +12°C° 0.2 mm 7 mps 747 mmHg 68%
    16:00 +14°C° 0.2 mm 7 mps 747 mmHg 64%
    17:00 +12°C° 0 mm 7 mps 747 mmHg 66%
    18:00 +11°C° 0 mm 6 mps 747 mmHg 68%
    19:00 +12°C° 0 mm 5 mps 748 mmHg 70%
    20:00 +12°C° 0 mm 5 mps 748 mmHg 70%
    21:00 +10°C° 0 mm 5 mps 748 mmHg 69%
    22:00 +10°C° 0 mm 5 mps 748 mmHg 69%
    23:00 +10°C° 0 mm 5 mps 748 mmHg 70%
    Show more